Regional Weather Roundup
Issued by NWS

Home | Current Version | Previous Version | Text Only | Print | Product List | Glossary On
Versions: 1 2 3 4 5 6 7 8 9 10 11 12 13 14 15 16 17 18 19 20 21 22 23 24 25 26 27 28 29 30 31 32 33 34 35 36 37 38 39 40 41 42 43 44 45 46 47 48 49 50
000
ASUS44 KBMX 050410
RWRAL

ALABAMA REGIONAL WEATHER ROUNDUP
NATIONAL WEATHER SERVICE BIRMINGHAM AL
1100 PM CDT MON MAY 04 2015

NOTE: "FAIR" INDICATES FEW OR NO CLOUDS BELOW 12,000 FEET
WITH NO SIGNIFICANT WEATHER AND/OR OBSTRUCTIONS TO VISIBILITY.

THE REMARK "TC" DENOTES TEMPERATURE IN DEGREES CELSIUS.

ALZ001>011-014-016>018-020-050500-
NORTH ALABAMA

CITY           SKY/WX    TMP DP  RH WIND       PRES   REMARKS
MUSCLE SHOALS  CLEAR     63  55  75 E3        30.23S
HUNTSVILLE     CLEAR     67  55  65 SE3       30.24S
DECATUR        CLEAR     61  56  83 CALM      30.24S
HALEYVILLE       N/A     58  57  96 MISG      30.26F
GADSDEN        CLEAR    N/A N/A N/A CALM      30.24S
$$

ALZ012-013-022-023-030>036-040>044-050500-
WEST CENTRAL ALABAMA

CITY           SKY/WX    TMP DP  RH WIND       PRES   REMARKS
TUSCALOOSA     CLEAR     63  58  83 NE3       30.22S
$$

ALZ015-024>027-033>036-040>044-050500-
CENTRAL ALABAMA

CITY           SKY/WX    TMP DP  RH WIND       PRES   REMARKS
BIRMINGHAM     CLEAR     64  57  78 CALM      30.26S
MONTGOMERY     CLEAR     67  56  67 CALM      30.24R
SHELBY CO ARPT CLEAR     63  60  90 CALM      30.25R
MAXWELL AFB    NOT AVBL
GREENVILLE     FAIR      64  55  72 S6        30.24R
$$

ALZ019-021-028-029-037-038-045>048-050500-
EAST CENTRAL ALABAMA

CITY           SKY/WX    TMP DP  RH WIND       PRES   REMARKS
ANNISTON       CLEAR     63  56  78 CALM      30.27S
ALEXANDER CITY CLEAR     58  54  85 CALM      30.26S
AUBURN         CLEAR     64  48  55 E6        30.28S
$$

ALZ051>064-050500-
SOUTHWEST ALABAMA

CITY           SKY/WX    TMP DP  RH WIND       PRES   REMARKS
MOBILE         PTCLDY    67  61  81 E6        30.21F
BROOKLEY FIELD PTCLDY    70  62  76 E8        30.22S
EVERGREEN      CLEAR     60  57  89 CALM      30.24S
$$

ALZ049-050-065>069-050500-
SOUTHEAST ALABAMA

CITY           SKY/WX    TMP DP  RH WIND       PRES   REMARKS
DOTHAN         PTCLDY    71  53  52 E7        30.27R
OZARK          CLEAR     67  55  64 N5        30.23S
TROY           CLEAR     60  55  83 CALM      30.25S
EUFAULA        FAIR      61  56  83 CALM      30.25R
$$



USA.gov is the U.S. government's official web portal to all federal, state and local government web resources and services.